sat.trackr.live / text

‹ back to catalog

EUTELSAT 8 WEST B

NORAD 40875 · 2015-039B

PAYLOAD ACTIVE UNKNOWN

§ Identity

Operator
Country
EUTE
Launch date
2015-08-20
Launch site
FRGUI
Launch vehicle
Mass (kg)
RCS (m²)
7.42

Purposes: comms

External: N2YO · Heavens-Above · Gunter

§ Orbital elements

Epoch: 2026-09-04T03:25:38.751168Z

Period
1,436.08 min
Inclination
0.0664°
Eccentricity
0.0003534
Mean motion
1.00272716 rev/d
Perigee alt
35,771.4 km
Apogee alt
35,801.2 km
Semi-major
42,164.5 km
B*
0.0000e+0
RAAN
354.7300°
Arg perigee
165.1423°
Mean anomaly
226.8300°
Rev number
4,044

§ Raw data

EUTELSAT 8 WEST B1 40875U 15039B   26247.14280962 -.00000070  00000+0  00000+0 0  99912 40875   0.0664 354.7300 0003534 165.1423 226.8300  1.00272716 40440

JSON: /api/v1/satellites/40875 · /tle

For live sub-satellite position, see the globe view (requires WebGL).

§ Visibility from observer

Set your observer location to see the next 7 days of passes ≥ 10°. The values pass through the URL so the page stays shareable.

No JS? Fill the form by hand. The geolocation button needs JavaScript.